Regional Weather Roundup
Issued by NWS Wakefield, VA

Home | Current Version | Previous Version | Graphics & Text | Print | Product List | Glossary On
Versions: 1 2 3 4 5 6 7 8 9 10 11 12 13 14 15 16 17 18 19 20 21 22 23 24 25 26 27 28
000
ASUS41 KAKQ 252210
RWRAKQ

REGIONAL WEATHER ROUNDUP
NATIONAL WEATHER SERVICE WAKEFIELD VA
600 PM EDT SAT OCT 25 2014

Note: "fair" indicates few or no clouds below 12,000 feet with no
significant weather and/or obstructions to visibility. * = Denotes
station may not report precipitation (e.g., rain,snow,etc.),
thunder or fog.

VAZ042-051-052>054-056-252300-
NORTHERN VIRGINIA

CITY           SKY/WX    TMP DP  RH WIND       PRES   REMARKS
WASH NATIONAL  PTCLDY    69  39  33 S13       29.75F
DULLES         PTCLDY    67  42  40 SW10      29.75F
FORT BELVOIR   CLEAR     66  42  42 VRB3      29.76F
QUANTICO       CLEAR     68  40  35 SW7       29.78F
FREDERICKSBRG* CLEAR     69  43  39 S7        29.78F
STAFFORD*      CLEAR     66  37  34 CALM      29.82F
WARRENTON      CLEAR     68  48  48 S5        29.76F
CULPEPER*      CLEAR     70  39  32 S5        29.77F
MANASSAS*      CLEAR     66  41  39 S6        29.76F
LEESBURG*      CLEAR     70  46  43 SW5       29.76F
WINCHESTER     CLEAR     72  32  23 W12       29.75F
FRONT ROYAL*   CLEAR     68  45  42 S5        29.75F
LURAY*         CLEAR     70  46  43 SW6       29.78F
$$

VAZ048-049-060>072-079>083-252300-
CENTRAL AND SOUTH CENTRAL VIRGINIA...AND NORTH CENTRAL NORTH CAROLINA

CITY           SKY/WX    TMP DP  RH WIND       PRES   REMARKS
RICHMOND       CLEAR     68  40  35 SW9       29.83F
CHESTERFIELD*    N/A    N/A N/A N/A MISG        N/A
PETERSBURG*    CLEAR     64  42  45 SW3       29.86F
HANOVER        CLEAR     67  40  37 SW7       29.84F
TAPPAHANNOCK*  CLEAR     68  33  27 SW5       29.82F
CHARLOTTSVILLE CLEAR     67  43  41 S6        29.79F
ORANGE*        CLEAR     68  43  40 SE5       29.80F
LOUISA*        CLEAR     66  45  45 S3        29.80F
FARMVILLE*     CLEAR     66  41  39 S7        29.82F
CREWE*         CLEAR     65  42  44 CALM      29.85S
FORT PICKETT*  CLEAR     63  44  49 SW6       29.86F
LUNENBURG*     CLEAR     64  48  56 CALM      29.86S
SOUTH HILL*    CLEAR     64  50  59 S3        29.92F
LAWRENCEVILLE* CLEAR     62  48  58 S3        29.86F
ROANOKE RAPIDS CLEAR     63  46  55 W5        29.88S
RALEIGH        CLEAR     66  45  46 W5        29.91S
$$

VAZ088>098-252300-
SOUTHEAST VIRGINIA

CITY           SKY/WX    TMP DP  RH WIND       PRES   REMARKS
NORFOLK        CLEAR     67  38  34 SW7       29.84F
VIRGINIA BEACH CLEAR     66  47  50 S6        29.84F
NORFOLK NAVAL  CLEAR     68  40  35 SW3       29.85F
WEST POINT*    CLEAR     67  41  39 SW6       29.84S
NEWPORT NEWS   CLEAR     65  45  48 SW7       29.84S
LANGLEY AFB    CLEAR     65  43  45 SW7       29.84S
FORT EUSTIS    CLEAR     66  43  43 SW5       29.83S
WILLIAMSBURG*  CLEAR     68  45  42 SW6       29.85F
HR EXEC AP*    CLEAR     61  46  59 CALM      29.87S
FRANKLIN*      CLEAR     66  43  42 CALM      29.86S
WAKEFIELD      CLEAR     66  45  46 SW5       29.85S
$$

VAZ020-022-025-037-045-252300-
WEST CENTRAL AND SOUTHWEST VIRGINIA

CITY           SKY/WX    TMP DP  RH WIND       PRES   REMARKS
STAUNTON*      PTCLDY    69  39  34 SW5       29.82F
HOT SPRINGS VA MOCLDY    58  38  47 W16G25    29.90F
LYNCHBURG      CLEAR     66  43  43 SW5       29.87F
DANVILLE       CLEAR     68  44  42 SW6       29.89F
SOUTH BOSTON*  NOT AVBL
MARTINSVILLE   PTCLDY    71  41  33 W3        29.92S
ROANOKE        PTCLDY    70  41  34 W6        29.90F
BLACKSBURG     PTCLDY    64  45  48 NW10G16   29.95F
DUBLIN*        PTCLDY    65  45  48 W10       29.96S
MARION*        CLOUDY    62  47  58 SW12      30.01F
HILLSVILLE*    PTCLDY    62  45  53 W7        29.98S
RICHLANDS*     CLOUDY    64  29  26 W8        30.01S
WISE*          CLOUDY    61  45  55 SW8       30.02F
ABINGDON*      MOCLDY    65  47  52 W7        30.01S
$$

MDZ021>025-VAZ099-100-252300-
SOUTHERN MARYLAND AND THE DELMARVA PENINSULA

CITY           SKY/WX    TMP DP  RH WIND       PRES   REMARKS
PATUXENT RIVER PTCLDY    66  42  41 SW6       29.79F
BAY BRIDGE APT   N/A     66  39  37 S7        29.74F
LEONARDTOWN    CLEAR     64  43  45 SW6       29.80F
DOVER          CLEAR     64  47  53 SW8       29.73S
GEORGETOWN     CLEAR     63  47  55 SW7       29.77F
EASTON         CLEAR     66  46  48 SW6       29.80F
CAMBRIDGE      CLEAR     64  43  45 SW5       29.77F
SALISBURY      CLEAR     63  46  54 SW8       29.78F
OCEAN CITY     CLEAR     63  44  50 SW7       29.78F
WALLOPS ISLAND CLEAR     62  46  55 W6        29.81F
ACCOMACK*      CLEAR     63  41  45 SW6       29.81F
$$

NCZ012>017-030>032-252300-
EASTERN NORTH CAROLINA

CITY           SKY/WX    TMP DP  RH WIND       PRES   REMARKS
ELIZABETH CITY CLEAR     66  45  46 W7        29.87R
AHOSKIE*       CLEAR     61  49  64 CALM      29.88R
EDENTON*       CLEAR     67  50  52 W3        29.87S
CURRITUCK*     CLEAR     65  49  56 CALM      29.87R
KILL DEVIL HLS CLEAR     64  48  56 CALM      29.86S
MANTEO         CLEAR     65  51  60 S8        29.87S
CAPE HATTERAS  CLEAR     63  52  67 W7        29.88S
TARBORO*       CLEAR     67  47  48 CALM      29.89R
GOLDSBORO      CLEAR     68  48  48 W3        29.88S
WASHINGTON     CLEAR     68  45  44 CALM      29.89R
GREENVILLE     CLEAR     68  45  42 CALM      29.91R
NEW BERN       CLEAR     68  51  54 SW3       29.89F
WILMINGTON     CLEAR     68  52  56 S6        29.90S
$$

VAZ048-252300-
ELSEWHERE

CITY           SKY/WX    TMP DP  RH WIND       PRES   REMARKS
HARRISBURG PA  MOCLDY    68  45  43 SW10      29.67F
BALTIMORE      PTCLDY    67  43  41 SW3       29.73F
ANNAPOLIS      CLEAR     67  40  37 S7        29.74F
ANDREWS AFB    CLEAR     65  39  38 S12       29.75F
WILMINGTON DE  CLEAR     66  44  45 SW12      29.71F
PHILADELPHIA   PTCLDY    66  46  48 SW9       29.70F
WILDWOOD NJ*   CLEAR     63  45  51 W8        29.76S
ATLANTIC CITY  CLEAR     64  44  48 SW8       29.72F
HENDERSON NC   CLEAR     65  43  45 SW5       29.89S
GREENSBORO     PTCLDY    69  36  29 W9        29.91S
ROCKY MOUNT    CLEAR     66  48  52 S3        29.89R
FAYETTEVILLE   CLEAR     70  41  34 W7        29.91S
CHARLOTTE      PTCLDY    71  34  25 W5        29.95S
$$

VAZ100-252300-
MARINE

STATION/POSITION TIME  TEMP    WIND        PRES    WAVE   SWELL
                       AIR SEA DIR/SP/G            HT/PER HT/PER
                 (UTC) (F)     (DEG/KT/KT) (MB)    (FT/S) (FT/S)
44066 TX TWR #4  2200   62 65  230/ 19/ 23 1005.6F   3/ 5   2/ 9
CAPE MAY NJ      2200   63 64  260/ 10/ 11 1007.0S
LEWES DE         2200   67 60  260/  8/ 11 1007.5R
15NM E FENWICK I 2200   65 65  240/ 14/ 17 1007.7F   2/ 4   2/10
OCEAN-CITY-INLET 2200   65 62  250/  8/ 11 1008.2F
WACHAPREAGUE VA  2200   65 62  230/  5/  7 1009.5F
THOMAS POINT MD  2200   67 62  210/ 15/ 15 1008.2F
GOOSES REEF MD   2200   67     230/ 10/ 12 1008.6F
COVE POINT MD    2200   67     230/  8/ 10 1008.4F
SOLOMONS ISLAND  2200      63                N/A
BISHOPS HEAD MD  2200   62 59  190/ 11/ 13 1008.5F
PINEY POINT MD   2200          250/  4/  5   N/A
POTOMAC MD       2200   67     250/ 10/ 12 1008.3F
CAMBRIDGE MD     2200   68 60  220/  5/  9 1007.9F
LEWISETTA VA     2200   68 61  250/  7/  8 1008.8S
RAPPAHANNOCK LGT 2200          200/ 14/ 16 1010.0S
STINGRAY PT      2200   66     220/  8/ 12 1010.4S
YORK RVR RNG VA  2200   67     230/ 10/ 11 1009.5F
YORKTOWN VA      2200   67 65  220/  5/  6 1009.8F
JAMESTOWN VA     2200   66     260/  6/  6   N/A
DOMINION TERM VA 2200   67     250/  7/  8 1010.8R
KIPTOPEKE VA     2200      67  210/  5/  6   N/A
CHES BAY BRIDGE  2200   66 64  150/  2/  2 1010.2F
CHESAPEAKE LGHT  2100   65     250/  4/  4 1011.4F
WILLOUBY STN VA  2200   67     250/ 10/ 12 1009.3F
S CRANEY ISL VA  2200          220/  4/  7 1010.5F
CAPE HENRY BUOY  2200      67                N/A     2/10
1ST LANDING BUOY 2200   66     240/  2/  4 1010.5S
CAPE CHARLES BUO 2200      66                N/A     2/10   2/10
64NM E OF VA BCH 2200   64 66  270/ 12/ 14 1010.2F   2/ 9   2/ 9
DUCK PIER NC     2200   65 66  200/  5/  5 1010.3F
44100 DUCK FRF   2200      67                N/A     3/10   2/11
44056 DUCK FRF   2200                        N/A     3/ 9   2/11
OREGON INLET NC  2200   65 66  190/  6/  7 1011.4S
HATTERAS NC      2200   67 67  260/  9/ 12 1012.1R
DIAMOND SHLS NC  2200   68     250/ 10/ 14 1011.8F   3/10   2/10
CAPE LOOKOUT NC  2100   67     220/  7/  9 1012.2F
$$



USA.gov is the U.S. government's official web portal to all federal, state and local government web resources and services.